Location: Newark
(30.0333°N, 31.2167°E)
Time: 01:55:13
(UTC+00:00)

Tiros 1 - Pass Details

Date: 01 February 2020
Orbit: 631 x 664 km, 48.4° (Epoch: 26 February)

Event Time Altitude Azimuth Distance (km) Brightness Sun altitude
Rises 12:23:31 0° 324° (NW) 2,951 10.4 32.7°
Reaches altitude 10° 12:27:08 10° 352° (N) 2,048 9.5 32.2°
Maximum altitude 12:29:20 13° 20° (NNE) 1,854 9.1 31.9°
Drops below altitude 10° 12:31:33 10° 48° (NE) 2,056 9.3 31.6°
Sets 12:35:11 0° 76° (ENE) 2,974 10.1 31.1°
